Zurück zum Katalog

COSMOS 1823 DEB

AktivLEO
NORAD 18758·DEBRIS·🇷🇺 Russia

Gestartet Feb 20, 1987 von Plesetsk Cosmodrome

Loading…

Nächste Überflüge (nächste 24 Stunden)

TLE

AktuellSource: Space-Track

Epoche: Sep 14, 2026, 12:35 UTC

1 18758U 87020AK  26257.52443922 -.00000009  00000-0  61120-4 0  9993
2 18758  73.6233  79.6189 0052626 223.5763 164.8536 12.38049467749269

Verfolge COSMOS 1823 DEB in Echtzeit mit AllMySat

Download on the App Store